Weather History for Massena, NY

Change the Weather History Date:

Thursday, September 26, 2013

  Actual Average Record
Temperature  
Mean Temperature 53 °F 54 °F  
Max Temperature 64 °F 65 °F 82 °F (1970)
Min Temperature 42 °F 43 °F 27 °F (1978)
Degree Days  
Heating Degree Days 12 11  
Month to date heating degree days 211 175  
Since 1 July heating degree days 267 250  
Cooling Degree Days 0 0  
Month to date cooling degree days 31 24  
Year to date cooling degree days 418 360  
Growing Degree Days 4 (Base 50)    
Moisture  
Dew Point 45 °F    
Average Humidity 74    
Maximum Humidity 96    
Minimum Humidity 52    
Precipitation  
Precipitation 0.00 in 0.12 in 2.09 in (1975)
Month to date precipitation 5.44 3.15  
Year to date precipitation 28.56 25.69  
Sea Level Pressure  
Sea Level Pressure 30.14 in    
Wind  
Wind Speed 5 mph (ENE)    
Max Wind Speed 15 mph    
Max Gust Speed 20 mph    
Visibility 8 miles    
Events      
T = Trace of Precipitation, MM = Missing Value Source: NWS Daily Summary

Daily Weather History Graph

Daily Weather History Graph

Search for Another Location

Airport:

Trip Planner

Search our weather history database for the weather conditions in past years. The results will help you decide how hot, cold, wet, or windy it might be!

Date:

Astronomy

Sep. 26, 2013 Rise Set
Actual Time 6:51 AM EDT 6:48 PM EDT
Civil Twilight 6:22 AM EDT 7:18 PM EDT
Nautical Twilight 5:48 AM EDT 7:52 PM EDT
Astronomical Twilight 5:13 AM EDT 8:26 PM EDT
Moon 11:32 PM EDT (9/26) 1:55 PM EDT (9/26)
Length of Visible Light 12h 55m
Length of Day
11h 57m
Waning Gibbous, 55% of the Moon is Illuminated
Sep 26
Waning Gibbous
Sep 26
Last Quarter
Oct 4
New
Oct 11
First Quarter
Oct 18
Full

Hourly Weather History & Observations

Time (EDT) Temp. Windchill Dew Point Humidity Pressure Visibility Wind Dir Wind Speed Gust Speed Precip Events Conditions
12:53 AM 50.0 °F - 45.0 °F 83% 30.04 in 10.0 mi ENE 5.8 mph - N/A   Clear
1:53 AM 50.0 °F - 45.0 °F 83% 30.05 in 10.0 mi East 3.5 mph - N/A   Clear
2:53 AM 45.0 °F - 43.0 °F 93% 30.06 in 10.0 mi Calm Calm - N/A   Clear
3:53 AM 44.1 °F - 42.1 °F 93% 30.06 in 10.0 mi Calm Calm - N/A   Clear
4:53 AM 45.0 °F 43.5 °F 43.0 °F 93% 30.08 in 10.0 mi NE 3.5 mph - N/A   Clear
5:53 AM 43.0 °F 41.3 °F 41.0 °F 93% 30.09 in 10.0 mi ENE 3.5 mph - N/A   Clear
6:53 AM 44.1 °F - 42.1 °F 93% 30.11 in 10.0 mi Calm Calm - N/A   Clear
7:53 AM 46.9 °F - 44.1 °F 90% 30.12 in 8.0 mi ENE 3.5 mph - N/A   Clear
8:53 AM 52.0 °F - 46.9 °F 83% 30.14 in 10.0 mi ENE 8.1 mph - N/A   Clear
9:53 AM 55.9 °F - 48.0 °F 75% 30.15 in 10.0 mi ENE 6.9 mph - N/A   Clear
10:53 AM 59.0 °F - 46.9 °F 64% 30.16 in 10.0 mi NE 9.2 mph - N/A   Clear
11:53 AM 61.0 °F - 48.0 °F 62% 30.15 in 10.0 mi ENE 6.9 mph - N/A   Partly Cloudy
12:53 PM 62.1 °F - 45.0 °F 53% 30.14 in 10.0 mi ENE 11.5 mph - N/A   Clear
1:53 PM 63.0 °F - 46.0 °F 54% 30.13 in 10.0 mi NE 11.5 mph 18.4 mph N/A   Clear
2:53 PM 64.0 °F - 46.9 °F 54% 30.14 in 10.0 mi ENE 12.7 mph 18.4 mph N/A   Mostly Cloudy
3:53 PM 62.1 °F - 46.0 °F 56% 30.14 in 10.0 mi NE 11.5 mph - N/A   Overcast
4:53 PM 61.0 °F - 46.0 °F 58% 30.16 in 10.0 mi ENE 8.1 mph - N/A   Mostly Cloudy
5:53 PM 57.9 °F - 46.0 °F 65% 30.16 in 10.0 mi ENE 6.9 mph - N/A   Mostly Cloudy
6:53 PM 55.0 °F - 46.9 °F 74% 30.17 in 10.0 mi Calm Calm - N/A   Clear
7:53 PM 48.9 °F - 45.0 °F 86% 30.18 in 10.0 mi Calm Calm - N/A   Clear
8:53 PM 48.0 °F - 45.0 °F 89% 30.19 in 10.0 mi Calm Calm - N/A   Clear
9:53 PM 46.0 °F - 44.1 °F 93% 30.19 in 9.0 mi Calm Calm - N/A   Clear
10:53 PM 46.0 °F - 43.0 °F 89% 30.20 in 8.0 mi Calm Calm - N/A   Clear
11:15 PM 44.6 °F - 42.8 °F 93% 30.19 in 1.2 mi Calm Calm - N/A   Clear
11:28 PM 44.6 °F - 42.8 °F 93% 30.19 in 3.0 mi Calm Calm - N/A   Clear
11:44 PM 44.6 °F - 42.8 °F 93% 30.19 in 1.5 mi Calm Calm - N/A   Clear
11:51 PM 44.6 °F - 42.8 °F 93% 30.19 in 1.0 mi Calm Calm - N/A   Clear
11:53 PM 44.1 °F - 42.1 °F 93% 30.20 in 1.8 mi Calm Calm - N/A   Clear
11:55 PM 44.6 °F - 42.8 °F 93% 30.19 in 4.0 mi Calm Calm - N/A   Clear